Regional Weather Roundup
Issued by NWS Kansas City/Pleasant Hill, MO

Home | Current Version | Previous Version | Text Only | Print | Product List | Glossary On
Versions: 1 2 3 4 5 6 7 8 9 10 11 12 13 14 15 16 17 18 19 20 21 22 23 24 25 26 27
000
ASUS43 KEAX 270810
RWREAX

WEATHER ROUNDUP FOR EASTERN KANSAS AND NORTHWEST MISSOURI
NATIONAL WEATHER SERVICE KANSAS CITY/PLEASANT HILL MO
300 AM CDT MON MAR 27 2017

KSZ040-057-103>105-MOZ028-029-037-043-270900-
...KANSAS CITY METROPOLITAN AREA...

CITY           SKY/WX    TMP DP  RH WIND       PRES   REMARKS
K.C. INTL      LGT RAIN  46  45  96 NE18      29.84F
K.C. DOWNTOWN  RAIN      47  46  97 E21       29.81F FOG
LEES SUMMIT    RAIN      47  46  97 E15       29.83F FOG
OLATHE - IXD   CLOUDY    47  46  97 NE12      29.81F
OLATHE - OJC   CLOUDY    46  46 100 NE18G24   29.80F
LAWRENCE       CLOUDY    47  46  97 NE10      29.83R

$$

MOZ001>008-011>017-020>025-030>033-038>040-044>046-053-054-270900-
...NORTHERN AND CENTRAL MISSOURI...

CITY           SKY/WX    TMP DP  RH WIND       PRES   REMARKS
ST. JOSEPH     LGT RAIN  46  46 100 NE5       29.89F
MOSBY          RAIN      46  45  93 NE6       29.88F
WARRENSBURG    RAIN      48  45  87 NE6       29.87S
WHITEMAN AFB   NOT AVBL
CLINTON        CLOUDY    52  48  87 NE9       29.82F
SEDALIA        CLOUDY    51  48  89 NE8       29.87F
WARSAW         NOT AVBL
CHILLICOTHE      N/A     48  44  86 CALM      29.91F
KIRKSVILLE     CLOUDY    47  44  90 NE3       29.92F

$$

MOZ041-047>049-056>058-063>065-088>090-097-270900-
...EASTERN AND SOUTHERN MISSOURI...

CITY           SKY/WX    TMP DP  RH WIND       PRES   REMARKS
ST. LOUIS INTL CLOUDY    53  48  83 NE5       29.90F
SPIRIT OF STL  CLOUDY    50  50 100 CALM      29.89F
COLUMBIA       LGT RAIN  50  48  93 NE7       29.87F
JEFFERSON CITY CLOUDY    54  49  83 SE5       29.87F
ROLLA          CLOUDY    53  50  89 SE6       29.86F
OSAGE BEACH    LGT RAIN N/A N/A N/A E3        29.85F
SPRINGFIELD    CLOUDY    56  53  90 E12       29.76F
BRANSON        CLOUDY    55  55 100 E9        29.79F
JOPLIN         LGT RAIN  55  55 100 E8        29.79F FOG
WEST PLAINS    TSTM      58  51  78 W7        29.89R

$$

IAZ060-094-KSZ022-034>040-054-083-096-NEZ052-066-093-270900-
...KANSAS...SOUTHEAST NEBRASKA AND IOWA...

CITY           SKY/WX    TMP DP  RH WIND       PRES   REMARKS
TOPEKA         CLOUDY    47  47 100 N6        29.85R
MANHATTAN      CLOUDY    47  44  90 N8        29.88S
EMPORIA        CLOUDY    47  47 100 N12       29.83R FOG
CHANUTE        LGT RAIN  53  50  89 SE6       29.76R
WICHITA        LGT RAIN  48  47  96 N15       29.84S
OMAHA          CLOUDY    45  41  86 NW5       29.93R
LINCOLN        CLOUDY    45  43  93 N9        29.94S
FALLS CITY     CLOUDY    46  44  93 NE7       29.88F
LAMONI         CLOUDY    45  43  93 E3        29.91S
DES MOINES     CLOUDY    46  44  93 CALM      29.92F

$$





USA.gov is the U.S. government's official web portal to all federal, state and local government web resources and services.